"August 21 to August 26, 1992",,,,,,,,,,,,,,,
NOAA Ship Discoverer,,,,,,,,,,,,,,,
Group,JD_GMT,Date,Time,Latitude,Longitude,xCO2w_ppm,xCO2a_ppm,Pres_Equil_mB,Pres_sealevel_mB,EqTemp_C,SST(TSG)_C,Sal(TSG)_permil,fCO2w@SST_uatm,fCO2a_uatm,dfCO2_uatm
PMEL,233.37,20081992,8:52:48,-8,-170.03,385.13,356.16,1003.6,1003.6,29.536,29.385,34.944,362.91,337.63,25.28
PMEL,233.41,20081992,9:50:24,-7.958,-170.05,384.73,356.16,1003.7,1003.7,29.498,29.346,34.944,362.59,337.7,24.89
PMEL,233.46,20081992,11:02:24,-7.951,-170.05,388.3,356.18,1003.5,1003.5,29.465,29.308,34.941,365.84,337.68,28.16
PMEL,233.5,20081992,12:00:00,-7.935,-170.05,390.33,356.18,1003.4,1003.4,29.473,29.299,34.938,367.47,337.65,29.82
PMEL,233.54,20081992,12:57:36,-7.746,-170.05,391.62,356.19,1002.8,1002.8,29.567,29.33,34.924,367.51,337.43,30.09
PMEL,233.58,20081992,13:55:12,-7.488,-170.04,392.71,356.2,1002.3,1002.3,29.577,29.392,34.925,369.05,337.21,31.84
PMEL,233.63,20081992,15:07:12,-7.231,-170.04,393.3,356.22,1002.2,1002.2,29.538,29.349,34.792,369.55,337.23,32.32
PMEL,233.67,20081992,16:04:48,-6.975,-170.03,396.08,356.19,1002.3,1002.3,29.494,29.295,34.75,372.1,337.28,34.82
PMEL,233.71,20081992,17:02:24,-6.714,-170.03,397,356.1,1002.5,1002.5,29.525,29.353,34.879,373.39,337.22,36.17
PMEL,233.75,20081992,18:00:00,-6.452,-170.03,395.29,356.3,1003,1003,29.535,29.357,34.935,371.88,337.58,34.3
PMEL,233.79,20081992,18:57:36,-6.183,-170.03,396.46,356.26,1003.2,1003.2,29.384,29.209,34.967,373.23,337.73,35.5
PMEL,233.83,20081992,19:55:12,-5.908,-170.02,395.27,356.17,1003.3,1003.3,29.363,29.156,34.992,371.72,337.72,34
PMEL,233.87,20081992,20:52:48,-5.648,-170.01,394.2,356.19,1003.4,1003.4,29.344,29.15,35.02,370.95,337.78,33.17
PMEL,233.92,20081992,22:04:48,-5.387,-170.01,393.59,356.2,1002.9,1002.9,29.336,29.142,35.055,370.19,337.62,32.57
PMEL,233.96,20081992,23:02:24,-5.119,-170,392.71,356.22,1002,1002,29.264,29.074,35.07,369.14,337.38,31.76
PMEL,234,21081992,0:00:00,-5.011,-170.01,393.73,356.14,1001.2,1001.2,29.306,29.115,35.067,369.74,336.99,32.75
PMEL,234.04,21081992,0:57:36,-5.013,-170.01,394.83,356.21,1000.4,1000.4,29.314,29.124,35.07,370.47,336.77,33.7
PMEL,234.08,21081992,1:55:12,-4.991,-169.97,396.5,356.28,999.75,999.75,29.433,29.166,35.068,370.62,336.58,34.04
PMEL,234.12,21081992,2:52:48,-4.99,-169.98,399.72,356.26,999.39,999.39,29.551,29.296,35.071,373.55,336.33,37.23
PMEL,234.17,21081992,4:04:48,-4.994,-169.99,393.15,356.22,999.52,999.52,29.428,29.271,35.073,368.92,336.36,32.56
PMEL,234.21,21081992,5:02:24,-5.002,-169.99,384.39,356.33,1000,1000,29.532,29.301,35.074,359.79,336.6,23.18
PMEL,234.33,21081992,7:55:12,-5.009,-170.01,385.89,356.16,1002.1,1002.1,29.406,29.206,35.075,362.51,337.25,25.25
PMEL,234.37,21081992,8:52:48,-5.004,-170.05,386.39,356.17,1002.7,1002.7,29.329,29.142,35.073,363.44,337.52,25.92
PMEL,234.41,21081992,9:50:24,-4.985,-170.05,387.71,356.16,1002.7,1002.7,29.329,29.151,35.072,364.81,337.51,27.3
PMEL,234.46,21081992,11:02:24,-4.833,-170.04,391.51,356.19,1002.4,1002.4,29.308,29.135,35.055,368.36,337.44,30.92
PMEL,234.5,21081992,12:00:00,-4.563,-170.03,391.71,356.19,1002.1,1002.1,29.247,28.969,35.054,367.04,337.47,29.57
PMEL,234.54,21081992,12:57:36,-4.303,-170.03,393.39,356.22,1001.6,1001.6,29.117,29,35.084,370.76,337.3,33.46
PMEL,234.58,21081992,13:55:12,-4.051,-170.01,393.93,356.29,1001.2,1001.2,29.17,28.984,35.043,370.11,337.24,32.88
PMEL,234.62,21081992,14:52:48,-3.782,-170.01,394.33,356.28,1001.1,1001.1,29.254,29.19,35.063,372.07,337.03,35.05
PMEL,234.67,21081992,16:04:48,-3.553,-170.01,394.69,356.26,1001.3,1001.3,29.382,29.217,35.021,370.98,337.06,33.92
PMEL,234.71,21081992,17:02:24,-3.507,-170.01,394.79,356.24,1002,1002,29.381,29.195,35.026,371.05,337.3,33.75
PMEL,234.75,21081992,18:00:00,-3.412,-170.01,393.3,356.26,1002.1,1002.1,29.379,29.195,35.02,369.72,337.36,32.36
PMEL,234.79,21081992,18:57:36,-3.172,-170.01,392.22,356.31,1002.5,1002.5,29.402,29.206,35.017,368.67,337.53,31.13
PMEL,234.83,21081992,19:55:12,-2.915,-170,393.07,356.23,1002.9,1002.9,29.345,29.17,35.029,369.96,337.63,32.33
PMEL,234.87,21081992,20:52:48,-2.65,-170.01,393.17,356.34,1002.9,1002.9,29.36,29.164,35.034,369.75,337.74,32.01
PMEL,234.92,21081992,22:04:48,-2.39,-170.01,392.88,356.38,1002.6,1002.6,29.355,29.153,35.033,369.28,337.68,31.61
PMEL,234.96,21081992,23:02:24,-2.179,-170.04,392.43,356.28,1002.3,1002.3,29.417,29.183,35.045,368.25,337.45,30.8
PMEL,235,22081992,0:00:00,-2.148,-170.05,392.96,356.2,1001.6,1001.6,29.392,29.219,35.055,369.34,337.11,32.24
PMEL,235.04,22081992,0:57:36,-2.121,-170.05,392.73,356.08,1000.8,1000.8,29.501,29.26,35.051,367.79,336.68,31.11
PMEL,235.08,22081992,1:55:12,-2.164,-170.04,400.23,356.15,1000.1,1000.1,29.532,29.303,35.037,374.69,336.47,38.22
PMEL,235.12,22081992,2:52:48,-2.092,-170.01,403.44,356.14,999.83,999.83,29.518,29.33,35.049,378.18,336.34,41.84
PMEL,235.17,22081992,4:04:48,-2.031,-170.01,402.86,356.14,999.77,999.77,29.449,29.304,35.045,378.28,336.34,41.94
PMEL,235.21,22081992,5:02:24,-1.791,-170.01,403.21,356.16,1000.1,1000.1,29.298,29.178,35.042,379.23,336.58,42.65
PMEL,235.25,22081992,6:00:00,-1.538,-170.01,405.55,356.12,1000.9,1000.9,29.212,29.082,35.056,381.68,336.89,44.78
PMEL,235.29,22081992,6:57:36,-1.272,-170.01,409.14,356.14,1001.8,1001.8,29.119,28.979,35.078,385.36,337.31,48.05
PMEL,235.33,22081992,7:55:12,-1.041,-170.01,411.62,356.07,1002.7,1002.7,29.041,28.894,35.095,388.02,337.62,50.4
PMEL,235.38,22081992,9:07:12,-0.994,-170,413.69,355.91,1003.5,1003.5,29.026,28.854,35.107,389.94,337.78,52.16
PMEL,235.41,22081992,9:50:24,-0.908,-169.99,412.09,355.93,1003.5,1003.5,28.947,28.822,35.111,389.19,337.83,51.37
PMEL,235.46,22081992,11:02:24,-0.704,-169.95,408.96,355.99,1003.4,1003.4,28.891,28.748,35.111,385.98,337.9,48.08
PMEL,235.5,22081992,12:00:00,-0.431,-169.94,405.33,355.96,1002.8,1002.8,28.736,28.636,35.158,383.07,337.75,45.32
PMEL,235.54,22081992,12:57:36,-0.17,-169.94,402.24,355.89,1002.5,1002.5,28.484,28.433,35.182,380.95,337.74,43.21
PMEL,235.58,22081992,13:55:12,-0.038,-170.02,384.26,355.95,1002.5,1002.5,28.426,28.259,35.19,362.38,337.93,24.45
PMEL,235.63,22081992,15:07:12,-0.029,-170.02,383.6,356.02,1002.3,1002.3,28.407,28.267,35.192,362.06,337.92,24.15
PMEL,235.67,22081992,16:04:48,0.082,-170.02,384.7,356.02,1002.2,1002.2,28.284,28.171,35.169,363.53,337.95,25.58
PMEL,235.71,22081992,17:02:24,0.332,-170.01,384.44,356,1002.5,1002.5,28.108,28.022,35.141,363.91,338.15,25.76
PMEL,235.75,22081992,18:00:00,0.59,-170.02,382.71,356.08,1003,1003,28.131,27.909,35.099,360.58,338.49,22.1
PMEL,235.79,22081992,18:57:36,0.849,-170.03,380.63,356.08,1003.6,1003.6,28.125,27.856,35.039,358.21,338.73,19.48
PMEL,235.83,22081992,19:55:12,1.003,-170.04,374.87,356.18,1004.3,1004.3,28.176,27.97,35.066,353.85,338.99,14.86
PMEL,235.87,22081992,20:52:48,1.037,-170.04,372.91,356.05,1004.2,1004.2,28.344,28.022,35.082,350.29,338.79,11.5
PMEL,235.92,22081992,22:04:48,1.253,-170.03,375.57,356.02,1003.5,1003.5,28.465,28.157,35.021,352.63,338.42,14.21
PMEL,235.96,22081992,23:02:24,1.524,-170.03,373.81,356.02,1003.1,1003.1,28.572,28.277,34.968,350.92,338.19,12.74
PMEL,236,23081992,0:00:00,1.786,-170.04,369.98,356,1002.4,1002.4,28.877,28.554,34.846,346.47,337.71,8.76
PMEL,236.04,23081992,0:57:36,1.986,-170.01,370.91,356.03,1001.6,1001.6,29.034,28.749,34.786,347.43,337.31,10.12
PMEL,236.08,23081992,1:55:12,2.001,-169.99,370.82,356.11,1001.1,1001.1,29.05,28.823,34.793,347.91,337.15,10.76
PMEL,236.12,23081992,2:52:48,1.995,-170.02,372.17,356.05,1000.7,1000.7,29.076,28.832,34.795,348.79,336.95,11.84
PMEL,236.17,23081992,4:04:48,2.043,-170.03,373.06,356.1,1000.5,1000.5,29.006,28.806,34.786,350.19,336.95,13.24
PMEL,236.21,23081992,5:02:24,2.284,-170.03,366.67,356.05,1001,1001,29.024,28.828,34.766,344.4,337.06,7.35
PMEL,236.25,23081992,6:00:00,2.535,-170.03,361.61,356.08,1001.7,1001.7,29.178,28.937,34.724,339.2,337.25,1.96
PMEL,236.29,23081992,6:57:36,2.788,-170.03,361.6,356.07,1002.4,1002.4,29.273,29.069,34.642,339.84,337.38,2.46
PMEL,236.33,23081992,7:55:12,2.986,-170.03,362.27,356.07,1003.4,1003.4,29.281,29.108,34.679,341.21,337.7,3.51
PMEL,236.37,23081992,8:52:48,3.012,-170.03,361.75,356.11,1004.1,1004.1,29.223,29.086,34.682,341.48,338,3.48
PMEL,236.41,23081992,9:50:24,3.153,-170.03,361.66,356.12,1004.1,1004.1,29.334,29.107,34.605,340.15,337.99,2.16
PMEL,236.46,23081992,11:02:24,3.401,-170.04,361.85,356.1,1003.8,1003.8,29.378,29.179,34.559,340.55,337.81,2.74
PMEL,236.5,23081992,12:00:00,3.679,-170.03,361.81,356.07,1003.3,1003.3,29.41,29.234,34.573,340.6,337.56,3.04
PMEL,236.54,23081992,12:57:36,3.923,-170.03,359.28,356,1002.8,1002.8,29.404,29.262,34.604,338.48,337.3,1.18
PMEL,236.58,23081992,13:55:12,3.991,-170.03,358.69,356.02,1002.4,1002.4,29.447,29.263,34.615,337.22,337.18,0.04
PMEL,236.62,23081992,14:52:48,4.06,-170.03,358.18,355.91,1002.1,1002.1,29.351,29.236,34.539,337.58,336.99,0.59
PMEL,236.67,23081992,16:04:48,4.308,-170.03,359.96,355.9,1002.1,1002.1,29.44,29.254,34.333,338.29,336.96,1.32
PMEL,236.71,23081992,17:02:24,4.551,-170.03,357,355.76,1002.5,1002.5,29.682,29.364,34.286,333.79,336.88,-3.09
PMEL,236.75,23081992,18:00:00,4.811,-170.03,354.01,355.64,1003.1,1003.1,29.729,29.541,34.339,332.79,336.84,-4.05
PMEL,236.79,23081992,18:57:36,4.972,-170.03,352.35,355.7,1003.8,1003.8,29.704,29.531,34.342,331.67,337.15,-5.47
PMEL,236.83,23081992,19:55:12,4.989,-170.02,350.67,355.81,1004.3,1004.3,29.741,29.539,34.349,329.87,337.42,-7.54
PMEL,236.87,23081992,20:52:48,5.043,-170,350.96,355.75,1004.9,1004.9,29.766,29.553,34.351,330.2,337.56,-7.36
PMEL,236.92,23081992,22:04:48,5.217,-170.03,350.85,355.88,1004.9,1004.9,29.762,29.588,34.345,330.58,337.65,-7.08
PMEL,236.96,23081992,23:02:24,5.47,-170.03,352.07,355.76,1004.4,1004.4,29.726,29.541,34.275,331.45,337.4,-5.96
PMEL,237,24081992,0:00:00,5.731,-170.03,351.23,355.72,1004,1004,29.702,29.521,34.252,330.59,337.24,-6.65
PMEL,237.04,24081992,0:57:36,5.985,-170.03,349.67,355.67,1003.1,1003.1,29.612,29.444,34.18,329.04,336.94,-7.9
PMEL,237.08,24081992,1:55:12,6.227,-170.03,350.01,355.75,1002.9,1002.9,29.648,29.498,34.215,329.49,336.9,-7.42
PMEL,237.12,24081992,2:52:48,6.47,-170.03,350.82,355.7,1002.1,1002.1,29.636,29.427,34.109,329.26,336.63,-7.38
PMEL,237.17,24081992,4:04:48,6.719,-170.03,352.34,355.67,1001.9,1001.9,29.487,29.369,34.05,331.86,336.58,-4.72
PMEL,237.21,24081992,5:02:24,6.952,-170.03,350.5,355.74,1002.5,1002.5,29.391,29.244,33.957,330.05,336.96,-6.91
PMEL,237.25,24081992,6:00:00,7.165,-170.03,350.26,355.7,1003.6,1003.6,29.297,29.135,33.925,330.08,337.39,-7.31
PMEL,237.29,24081992,6:57:36,7.391,-170.03,353.14,355.72,1004,1004,29.319,29.138,33.954,332.68,337.54,-4.86
PMEL,237.33,24081992,7:55:12,7.607,-170.03,352.56,355.75,1004.3,1004.3,29.346,29.123,33.945,331.69,337.69,-6
PMEL,237.38,24081992,9:07:12,7.78,-170.02,351.91,355.77,1004.8,1004.8,29.341,29.182,33.989,332.05,337.84,-5.78
PMEL,237.41,24081992,9:50:24,7.883,-170.04,351.84,355.79,1005.1,1005.1,29.303,29.163,33.964,332.36,337.98,-5.62
PMEL,237.5,24081992,12:00:00,7.982,-170.05,352.79,355.82,1004.1,1004.1,29.25,29.076,33.882,332.53,337.72,-5.2
PMEL,237.54,24081992,12:57:36,7.99,-170.05,353.89,355.84,1003.4,1003.4,29.269,29.064,33.881,332.92,337.51,-4.59
PMEL,237.58,24081992,13:55:12,7.976,-170,353.98,355.83,1002.6,1002.6,29.242,29.123,33.91,333.83,337.17,-3.35
PMEL,237.62,24081992,14:52:48,8,-170,352.42,355.86,1002.4,1002.4,29.337,29.091,33.889,330.63,337.16,-6.53
PMEL,237.67,24081992,16:04:48,8.02,-170.06,354.47,355.88,1002.6,1002.6,29.267,29.083,33.9,333.45,337.25,-3.8
PMEL,237.71,24081992,17:02:24,7.97,-169.96,354.57,355.85,1002.9,1002.9,29.233,29.143,33.94,334.86,337.28,-2.42
PMEL,237.75,24081992,18:00:00,7.965,-169.97,355.49,355.91,1003.2,1003.2,29.331,29.132,33.953,334.38,337.45,-3.07
PMEL,237.79,24081992,18:57:36,7.968,-169.99,353.87,355.79,1003.8,1003.8,29.285,29.091,33.933,333.16,337.58,-4.42
PMEL,237.83,24081992,19:55:12,7.97,-169.99,354.25,355.78,1004.5,1004.5,29.265,29.106,33.935,334.22,337.8,-3.58
PMEL,237.88,24081992,21:07:12,7.972,-170,352.64,355.78,1004.5,1004.5,29.308,29.107,33.932,332.14,337.8,-5.66
PMEL,237.92,24081992,22:04:48,7.984,-170.01,353.42,355.84,1004.3,1004.3,29.358,29.129,33.938,332.42,337.77,-5.35
PMEL,237.96,24081992,23:02:24,8.001,-170.03,351.43,355.75,1003.9,1003.9,29.396,29.177,33.94,330.5,337.51,-7
PMEL,238,25081992,0:00:00,8.004,-170.03,350.85,355.66,1003,1003,29.431,29.221,33.95,329.74,337.07,-7.34
